Location: Basses Si�yes
(44.0835°N, 6.2037°E)
Time: 04:47:48
(UTC+00:00)

Okean 1 - Pass Details

Date: 27 February 2020
Orbit: 538 x 556 km, 82.5° (Epoch: 30 March)

Event Time Altitude Azimuth Distance (km) Brightness Sun altitude
Rises 18:41:47 0° 351° (N) 2,724 7.0 -15.4°
Reaches altitude 10° 18:43:57 10° 351° (N) 1,823 6.1 -15.8°
Maximum altitude 18:47:58 87° 265° (W) 550 3.2 -16.5°
Drops below altitude 10° 18:51:56 10° 174° (S) 1,798 5.8 -17.3°
Sets 18:54:04 0° 174° (S) 2,682 6.7 -17.6°
